Regional Weather Roundup
Issued by NWS Sterling, VA

Home | Current Version | Previous Version | Graphics & Text | Print | Product List | Glossary On
Versions: 1 2 3 4 5 6 7 8 9 10 11 12 13 14 15 16 17 18 19 20 21 22 23 24 25 26 27 28 29 30 31 32 33 34 35 36 37 38 39 40 41 42 43 44 45 46 47 48 49 50
000
ASUS41 KLWX 170310
RWRLWX

REGIONAL WEATHER ROUNDUP
NATIONAL WEATHER SERVICE BALTIMORE MD/WASHINGTON DC
1100 PM EDT TUE SEP 16 2014

Note: "FAIR" indicates few or no clouds below 12,000 feet
with no significant weather and/or obstructions to visibility.
 TC=TEMPERATURE CELSIUS

 * =Non NWS site. Station does not report precipitation (e.g. rain,
    snow, etc.), thunder, or fog.

DCZ001-MDZ009-015-VAZ040>042-051-053>054-170400-
WASHINGTON METRO

CITY           SKY/WX    TMP DP  RH WIND       PRES   REMARKS
WASHINGTON NAT PTCLDY    67  52  58 N5        30.04R
DULLES         PTCLDY    58  51  78 CALM      30.05R
ANDREWS AFB    CLEAR     61  52  72 N2        30.03R
QUANTICO       CLEAR     62  56  80 NW8       30.04S
COLLEGE PARK*  CLEAR     57  55  94 CALM      30.04R
LEESBURG*      CLEAR     59  54  82 N6        30.06S
MANASSAS*      PTCLDY    55  54  94 CALM      30.05R
GAITHERSBURG*  CLEAR     55  50  82 CALM      30.08S

$$

MDZ006>007-011-014-170400-
BALTIMORE METRO

CITY           SKY/WX    TMP DP  RH WIND       PRES   REMARKS
BWI AIRPORT    PTCLDY    57  52  83 W3        30.04R
MD SCIENCE CTR   N/A     67  51  56 MISG      30.04R
MARTIN STATE   PTCLDY    59  54  82 CALM      30.05R
ANNAPOLIS      CLEAR     66  57  72 N7        30.03R
FORT MEADE*    CLEAR     52  50  93 CALM      30.06S

$$

MDZ012-015-019>023-170400-
MARYLAND EASTERN SHORE

CITY           SKY/WX    TMP DP  RH WIND       PRES   REMARKS
OCEAN CITY     CLEAR     61  57  87 N5        30.00S
SALISBURY      PTCLDY    63  56  78 N5        30.00F
BAY BRIDGE AP*   N/A     64  52  63 N6        30.03R
EASTON*        CLEAR     62  58  87 CALM      30.06

$$

MDZ017>025-170400-
SOUTHERN MARYLAND

CITY           SKY/WX    TMP DP  RH WIND       PRES   REMARKS
PATUXENT RIVER PTCLDY    66  55  67 NE8       30.01S
ST INIGOES     PTCLDY    63  54  72 CALM      30.01R
LEONARDTOWN*   CLEAR     61  55  82 CALM      30.04R

$$

MDZ003>005-170400-
NORTH CENTRAL MARYLAND

CITY           SKY/WX    TMP DP  RH WIND       PRES   REMARKS
FREDERICK*     CLEAR     55  54  94 CALM      30.07S
HAGERSTOWN APT CLEAR     59  50  72 N5        30.05S
WESTMINSTER*   MOCLDY    59  54  82 CALM      30.06R

$$

MDZ501>502-170400-
WESTERN MARYLAND

CITY           SKY/WX    TMP DP  RH WIND       PRES   REMARKS
OAKLAND*       CLEAR     50  50 100 CALM      30.11S
CUMBERLAND*    CLEAR     54  50  87 NE5       30.11S

$$

VAZ025>031-170400-
SHENANDOAH VALLEY

CITY           SKY/WX    TMP DP  RH WIND       PRES   REMARKS
WINCHESTER*    CLEAR     54  48  82 CALM      30.06S
STAUNTON*      CLOUDY    64  49  59 NE3       30.09R

$$

WVZ021-048>050-054>055-170400-
EASTERN WEST VIRGINIA PANHANDLE

CITY           SKY/WX    TMP DP  RH WIND       PRES   REMARKS
MARTINSBURG    CLEAR     56  48  74 W3        30.06R
PETERSBURG*    CLEAR     50  48  93 CALM      30.09S

$$

VAZ036>039-050-170400-
CENTRAL FOOTHILLS

CITY           SKY/WX    TMP DP  RH WIND       PRES   REMARKS
CHARLOTTESVILL MOCLDY    66  52  60 NE7       30.05R
ORANGE*        PTCLDY    61  52  72 CALM      30.06S

$$

VAZ055>057-170400-
NORTH AND CENTRAL PIEDMONT

CITY           SKY/WX    TMP DP  RH WIND       PRES   REMARKS
FREDERICKSBRG* PTCLDY    63  56  78 CALM      30.03R
STAFFORD*      CLEAR     59  53  80 CALM      30.08R

$$

NCZ024-NYZ072-PAZ021-071-VAZ022-071-170400-
OTHER REGIONAL OBSERVATIONS

CITY           SKY/WX    TMP DP  RH WIND       PRES   REMARKS
NEW YORK CITY  CLOUDY    64  50  60 CALM      30.04R
PHILADELPHIA   PTCLDY    65  50  58 NE6       30.03S
PITTSBURGH     PTCLDY    58  50  75 N8        30.07F
ROANOKE        MOCLDY    65  56  72 CALM      30.06R
RICHMOND       MOCLDY    70  58  65 NE5       30.02R
RALEIGH        CLOUDY    72  65  78 CALM      29.98F

$$

ANZ530>537-170400-
MARINE OBSERVATIONS

STATION/POSITION TIME  TEMP    WIND        PRES
                       AIR SEA DIR/SP/G
                 (UTC) (F)     (DEG/KT/KT) (MB)
THOMAS PT LIGHT  0300   68 75  360/ 10/ 11 1017.7R
BALT KEY BRIDGE  0300   67     350/  5/  7 1016.9R
COVE POINT       0300   69      50/ 10/ 13 1016.3F
LEWISETTA        0300   71 74   50/  9/ 11 1015.6F
SOLOMONS ISLAND  0300      76                N/A
PINEY POINT      0300           50/  5/  6   N/A

$$




USA.gov is the U.S. government's official web portal to all federal, state and local government web resources and services.